Weather History for Key West, FL

Change the Weather History Date:

Friday, April 5, 2013

  Actual Average Record
Temperature  
Mean Temperature 73 °F 75 °F  
Max Temperature 78 °F 80 °F 86 °F (1949)
Min Temperature 67 °F 70 °F 58 °F (1915)
Degree Days  
Heating Degree Days 0 0  
Month to date heating degree days 0 0  
Since 1 July heating degree days 28 73  
Cooling Degree Days 8 10  
Month to date cooling degree days 60 50  
Year to date cooling degree days 756 660  
Growing Degree Days 20 (Base 50)    
Moisture  
Dew Point 66 °F    
Average Humidity 82    
Maximum Humidity 90    
Minimum Humidity 73    
Precipitation  
Precipitation 1.41 in 0.07 in 2.26 in (1950)
Month to date precipitation 1.41 0.36  
Year to date precipitation 5.15 5.94  
Snow  
Snow 0.00 in - - ()
Month to date snowfall 0.0  
Since 1 July snowfall 0.0  
Snow Depth 0.00 in    
Sea Level Pressure  
Sea Level Pressure 29.93 in    
Wind  
Wind Speed 12 mph (North)    
Max Wind Speed 24 mph    
Max Gust Speed 31 mph    
Visibility 8 miles    
Events Rain , Thunderstorm    
T = Trace of Precipitation, MM = Missing Value Source: NWS Daily Summary

Daily Weather History Graph

Daily Weather History Graph

Search for Another Location

Airport:

Trip Planner

Search our weather history database for the weather conditions in past years. The results will help you decide how hot, cold, wet, or windy it might be!

Date:

Astronomy

Apr. 05, 2013 Rise Set
Actual Time 7:14 AM EDT 7:44 PM EDT
Civil Twilight 6:51 AM EDT 8:07 PM EDT
Nautical Twilight 6:24 AM EDT 8:34 PM EDT
Astronomical Twilight 5:57 AM EDT 9:02 PM EDT
Moon 3:51 AM EDT (4/5) 3:34 PM EDT (4/5)
Length of Visible Light 13h 16m
Length of Day
12h 30m
Waning Crescent, 24% of the Moon is Illuminated
Apr 5
Waning Crescent
Apr 10
New
Apr 18
First Quarter
Apr 25
Full
May 2
Last Quarter

Hourly Weather History & Observations

Time (EDT) Temp. Dew Point Humidity Pressure Visibility Wind Dir Wind Speed Gust Speed Precip Events Conditions
12:53 AM 78.1 °F 73.9 °F 87% 29.97 in 10.0 mi SE 8.1 mph - N/A   Mostly Cloudy
1:13 AM 78.8 °F 73.4 °F 83% 29.96 in 10.0 mi SE 5.8 mph - N/A Thunderstorm Thunderstorm
1:53 AM 75.0 °F 69.1 °F 82% 29.95 in 10.0 mi SE 13.8 mph - N/A Thunderstorm Thunderstorm
2:05 AM 75.2 °F 69.8 °F 83% 29.94 in 10.0 mi ESE 12.7 mph - N/A   Mostly Cloudy
2:53 AM 75.9 °F 71.1 °F 85% 29.94 in 10.0 mi ESE 9.2 mph - N/A   Overcast
3:20 AM 73.4 °F 66.2 °F 78% 29.99 in 10.0 mi NNW 18.4 mph 24.2 mph N/A   Overcast
3:31 AM 69.8 °F 64.4 °F 83% 29.98 in 3.0 mi NNE 16.1 mph 28.8 mph 0.09 in Rain Heavy Rain
3:41 AM 69.8 °F 66.2 °F 88% 29.97 in 4.0 mi North 19.6 mph 27.6 mph 0.21 in Rain Heavy Rain
3:53 AM 69.1 °F 64.9 °F 87% 29.98 in 10.0 mi North 17.3 mph 24.2 mph 0.24 in Rain Light Rain
4:34 AM 69.8 °F 66.2 °F 88% 29.96 in 10.0 mi NNE 13.8 mph 23.0 mph 0.00 in   Mostly Cloudy
4:53 AM 70.0 °F 66.0 °F 87% 29.95 in 10.0 mi NNE 13.8 mph 23.0 mph 0.00 in   Mostly Cloudy
5:53 AM 72.0 °F 66.0 °F 81% 29.95 in 10.0 mi NE 11.5 mph 17.3 mph N/A   Overcast
6:53 AM 73.0 °F 64.9 °F 76% 29.95 in 10.0 mi NE 10.4 mph - N/A   Overcast
7:53 AM 73.0 °F 66.0 °F 79% 29.96 in 10.0 mi East 6.9 mph - N/A   Mostly Cloudy
8:53 AM 73.0 °F 66.0 °F 79% 29.98 in 10.0 mi ENE 3.5 mph - N/A   Mostly Cloudy
9:34 AM 73.4 °F 66.2 °F 78% 30.01 in 6.0 mi NNW 10.4 mph - 0.02 in Rain Rain
9:36 AM 73.4 °F 66.2 °F 78% 30.01 in 5.0 mi NNW 11.5 mph - 0.02 in Rain , Thunderstorm Heavy Thunderstorms and Rain
9:53 AM 70.0 °F 66.0 °F 87% 29.99 in 4.0 mi NNE 8.1 mph - 0.10 in Rain , Thunderstorm Heavy Thunderstorms and Rain
10:53 AM 69.1 °F 66.0 °F 90% 29.97 in 10.0 mi ESE 9.2 mph - 0.07 in Rain , Thunderstorm Light Thunderstorms and Rain
11:18 AM 71.6 °F 66.2 °F 83% 29.96 in 10.0 mi SE 9.2 mph - 0.01 in Rain Light Rain
11:53 AM 72.0 °F 66.9 °F 84% 29.94 in 10.0 mi SSE 13.8 mph - 0.03 in Rain Light Rain
12:53 PM 73.0 °F 68.0 °F 84% 29.92 in 10.0 mi SE 18.4 mph 29.9 mph 0.00 in   Partly Cloudy
1:53 PM 73.9 °F 68.0 °F 82% 29.88 in 10.0 mi SSE 13.8 mph - N/A   Overcast
2:53 PM 75.0 °F 68.0 °F 79% 29.88 in 6.0 mi South 8.1 mph - 0.01 in Rain Rain
3:53 PM 75.0 °F 68.0 °F 79% 29.87 in 10.0 mi NNW 5.8 mph - 0.03 in Rain Light Rain
4:13 PM 73.4 °F 68.0 °F 83% 29.85 in 4.0 mi North 9.2 mph - 0.00 in Rain Rain
4:20 PM 71.6 °F 68.0 °F 88% 29.86 in 1.8 mi Variable 3.5 mph - 0.11 in Rain Heavy Rain
4:24 PM 71.6 °F 68.0 °F 88% 29.86 in 2.0 mi North 11.5 mph 16.1 mph 0.13 in Rain Heavy Rain
4:30 PM 71.6 °F 68.0 °F 88% 29.86 in 1.8 mi NNW 16.1 mph 20.7 mph 0.23 in Rain Heavy Rain
4:42 PM 68.0 °F 66.2 °F 94% 29.85 in 3.0 mi NW 15.0 mph 23.0 mph 0.38 in Rain Heavy Rain
4:46 PM 69.8 °F 64.4 °F 83% 29.87 in 1.5 mi West 17.3 mph 21.9 mph 0.41 in Rain Heavy Rain
4:53 PM 68.0 °F 64.0 °F 87% 29.85 in 0.8 mi WSW 20.7 mph 27.6 mph 0.69 in Rain Heavy Rain
4:55 PM 68.0 °F 64.4 °F 88% 29.85 in 1.0 mi SW 19.6 mph 27.6 mph 0.05 in Rain Heavy Rain
5:04 PM 66.2 °F 62.6 °F 88% 29.84 in 1.8 mi West 10.4 mph - 0.21 in Rain Heavy Rain
5:08 PM 66.2 °F 62.6 °F 88% 29.85 in 3.0 mi WSW 11.5 mph - 0.23 in Rain Rain
5:19 PM 69.8 °F 64.4 °F 83% 29.85 in 9.0 mi Variable 3.5 mph - 0.24 in Rain Light Rain
5:46 PM 69.8 °F 66.2 °F 88% 29.86 in 10.0 mi Calm Calm - 0.24 in   Overcast
5:53 PM 72.0 °F 66.9 °F 84% 29.86 in 10.0 mi Calm Calm - 0.24 in   Mostly Cloudy
6:49 PM 71.6 °F 66.2 °F 83% 29.87 in 10.0 mi NNW 9.2 mph - N/A   Overcast
6:53 PM 72.0 °F 66.0 °F 81% 29.87 in 10.0 mi NNW 6.9 mph - N/A   Overcast
7:00 PM 71.6 °F 66.2 °F 83% 29.87 in 10.0 mi NNW 8.1 mph - N/A   Overcast
7:37 PM 71.6 °F 66.2 °F 83% 29.89 in 10.0 mi NNW 12.7 mph - N/A   Overcast
7:53 PM 70.0 °F 66.0 °F 87% 29.91 in 10.0 mi NNW 13.8 mph 23.0 mph N/A   Overcast
8:30 PM 69.8 °F 64.4 °F 83% 29.93 in 10.0 mi North 16.1 mph 24.2 mph N/A   Overcast
8:51 PM 69.8 °F 64.4 °F 83% 29.94 in 10.0 mi NNW 15.0 mph 23.0 mph N/A   Overcast
8:53 PM 70.0 °F 64.0 °F 81% 29.94 in 10.0 mi North 13.8 mph 23.0 mph N/A   Overcast
9:24 PM 69.8 °F 64.4 °F 83% 29.96 in 10.0 mi North 12.7 mph 20.7 mph N/A   Overcast
9:53 PM 70.0 °F 62.1 °F 76% 29.97 in 10.0 mi NNW 15.0 mph 24.2 mph N/A   Mostly Cloudy
10:30 PM 69.8 °F 62.6 °F 78% 29.99 in 10.0 mi NNW 15.0 mph 23.0 mph N/A   Mostly Cloudy
10:39 PM 69.8 °F 60.8 °F 73% 29.99 in 10.0 mi NNW 13.8 mph 20.7 mph N/A   Scattered Clouds
10:49 PM 69.8 °F 60.8 °F 73% 29.99 in 10.0 mi NNW 15.0 mph - N/A   Mostly Cloudy
10:53 PM 69.1 °F 61.0 °F 75% 29.99 in 10.0 mi NNW 15.0 mph - N/A   Scattered Clouds
11:53 PM 69.1 °F 60.1 °F 73% 29.99 in 10.0 mi NNW 15.0 mph - N/A   Partly Cloudy